Location: Newark
(50.0306°N, 2.3272°E)
Time: 09:38:23
(UTC+00:00)

Vanguard 1 Rocket - Pass Details

Date: 13 December 2019
Orbit: 650 x 4226 km, 34.3° (Epoch: 27 January)

Event Time Altitude Azimuth Distance (km) Brightness Sun altitude
Rises 22:33:09 0° 256° (WSW) 7,261 12.1 -59.7°
Reaches altitude 10° 22:39:18 10° 249° (WSW) 5,648 11.4 -60.2°
Enters shadow 22:41:39 15° 245° (WSW) 5,011 11.1 -60.4°
Maximum altitude 22:51:55 34° 193° (SSW) 2,709 - -61.2°
Drops below altitude 10° 22:59:11 10° 132° (SE) 3,224 - -61.7°
Sets 23:01:40 0° 122° (ESE) 3,880 - -61.8°
